Eugene, OR

12:30 AM PST on November 12, 2019 (GMT -0800)
Mahlon Sweet

Weather History for KEUG - September, 2019

Change the Weather History Date:

Wednesday, September 18, 2019

  Actual Average Record
Temperature  
Mean Temperature 61 °F 62 °F  
Max Temperature 65 °F 77 °F 91 °F (1991)
Min Temperature 56 °F 47 °F 34 °F (1988)
Degree Days  
Heating Degree Days 4 4  
Month to date heating degree days 31 51  
Since 1 July heating degree days 43 118  
Cooling Degree Days 0 1  
Month to date cooling degree days 43 25  
Year to date cooling degree days 351 233  
Growing Degree Days 10 (Base 50)    
Moisture  
Dew Point 54 °F    
Average Humidity 83    
Maximum Humidity 93    
Minimum Humidity 72    
Precipitation  
Precipitation 0.86 in 0.04 in 0.81 in (1968)
Month to date precipitation 4.04 0.67  
Year to date precipitation 27.25 26.68  
Sea Level Pressure  
Sea Level Pressure 29.88 in    
Wind  
Wind Speed 7 mph (South)    
Max Wind Speed 15 mph    
Max Gust Speed 18 mph    
Visibility 10 miles    
Events Rain    
T = Trace of Precipitation, MM = Missing Value Source: NWS Daily Summary

Daily Weather History Graph

Daily Weather History Graph

Search for Another Location

Airport or City:

Astronomy

Sep. 18, 2019 Rise Set
Actual Time 6:55 AM PDT 7:17 PM PDT
Civil Twilight 6:26 AM PDT 7:46 PM PDT
Nautical Twilight 5:52 AM PDT 8:20 PM PDT
Astronomical Twilight 5:16 AM PDT 8:55 PM PDT
Moon 9:46 PM PDT (9/18) 11:12 AM PDT (9/18)
Length of Visible Light 13h 20m
Length of Day
12h 22m
Waning Gibbous, 82% of the Moon is Illuminated
Sep 18
Waning Gibbous
Sep 21
Last Quarter
Sep 28
New
Oct 5
First Quarter
Oct 13
Full

Hourly Weather History & Observations

Time (PDT) Temp. Dew Point Humidity Pressure Visibility Wind Dir Wind Speed Gust Speed Precip Events Conditions
12:54 AM 57.0 °F 54.0 °F 89% 29.82 in 10.0 mi South 8.1 mph - 0.01 in   Overcast
1:54 AM 57.0 °F 54.0 °F 89% 29.81 in 10.0 mi South 6.9 mph - N/A   Overcast
2:54 AM 57.0 °F 54.0 °F 89% 29.81 in 10.0 mi South 10.4 mph - N/A   Mostly Cloudy
3:54 AM 55.9 °F 54.0 °F 93% 29.81 in 10.0 mi SE 3.5 mph - 0.11 in Rain Rain
4:54 AM 57.0 °F 55.0 °F 93% 29.80 in 10.0 mi SSE 9.2 mph - 0.14 in Rain Rain
5:54 AM 57.0 °F 54.0 °F 89% 29.81 in 10.0 mi South 6.9 mph - 0.18 in Rain Light Rain
6:54 AM 57.0 °F 54.0 °F 89% 29.81 in 9.0 mi SE 4.6 mph - 0.11 in Rain Light Rain
7:54 AM 57.0 °F 54.0 °F 89% 29.83 in 6.0 mi South 5.8 mph - 0.03 in Rain Light Rain
8:54 AM 57.0 °F 54.0 °F 89% 29.83 in 10.0 mi SE 8.1 mph - 0.12 in Rain Light Rain
9:54 AM 59.0 °F 55.0 °F 87% 29.85 in 10.0 mi SSE 6.9 mph - 0.02 in   Overcast
10:24 AM 59.0 °F 55.0 °F 87% 29.85 in 10.0 mi SSE 6.9 mph - N/A   Overcast
10:54 AM 60.1 °F 55.0 °F 83% 29.86 in 10.0 mi South 9.2 mph - 0.00 in Rain Light Rain
11:22 AM 61.0 °F 55.9 °F 83% 29.86 in 10.0 mi SSE 9.2 mph - 0.00 in   Overcast
11:54 AM 62.1 °F 55.9 °F 80% 29.86 in 10.0 mi SSE 10.4 mph - 0.00 in   Overcast
12:54 PM 62.1 °F 53.1 °F 72% 29.87 in 10.0 mi SW 9.2 mph - N/A   Overcast
1:00 PM 60.1 °F 54.0 °F 80% 29.87 in 9.0 mi SW 12.7 mph - 0.00 in Rain Light Rain
1:54 PM 59.0 °F 54.0 °F 83% 29.88 in 10.0 mi ESE 5.8 mph - 0.14 in Rain Light Rain
2:54 PM 62.1 °F 55.9 °F 80% 29.88 in 10.0 mi South 6.9 mph - 0.00 in   Mostly Cloudy
3:54 PM 63.0 °F 54.0 °F 72% 29.89 in 10.0 mi SSE 8.1 mph - N/A   Mostly Cloudy
4:54 PM 62.1 °F 53.1 °F 72% 29.90 in 10.0 mi South 3.5 mph - N/A   Mostly Cloudy
5:54 PM 61.0 °F 55.9 °F 83% 29.92 in 10.0 mi North 5.8 mph - 0.01 in Rain Light Rain
6:54 PM 61.0 °F 55.9 °F 83% 29.94 in 10.0 mi NNW 3.5 mph - 0.00 in   Mostly Cloudy
7:54 PM 59.0 °F 55.0 °F 87% 29.95 in 10.0 mi Calm Calm - N/A   Mostly Cloudy
8:54 PM 55.9 °F 54.0 °F 93% 29.96 in 10.0 mi West 4.6 mph - N/A   Mostly Cloudy
9:54 PM 55.0 °F 53.1 °F 93% 29.98 in 10.0 mi Calm Calm - N/A   Mostly Cloudy
10:54 PM 57.0 °F 54.0 °F 89% 29.99 in 10.0 mi Calm Calm - N/A   Mostly Cloudy
11:41 PM 55.0 °F 52.0 °F 89% 30.00 in 9.0 mi Calm Calm - N/A   Mostly Cloudy
11:54 PM 54.0 °F 52.0 °F 93% 30.00 in 10.0 mi Calm Calm - N/A   Mostly Cloudy